Weather History for Wahpeton, ND

Change the Weather History Date:

Thursday, February 14, 2013

  Actual Average (KFFM) Record (KFFM)
Temperature  
Mean Temperature 8 °F -  
Max Temperature 21 °F 23 °F 44 °F (1983)
Min Temperature -5 °F 3 °F -22 °F (1949)
Degree Days  
Heating Degree Days 57    
Moisture  
Dew Point 6 °F    
Average Humidity 83    
Maximum Humidity 93    
Minimum Humidity 73    
Precipitation  
Precipitation 0.00 in - - ()
Sea Level Pressure  
Sea Level Pressure 30.05 in    
Wind  
Wind Speed 12 mph (NNW)    
Max Wind Speed 24 mph    
Max Gust Speed 26 mph    
Visibility 9 miles    
Events      
Averages and records for this station are not official NWS values.
T = Trace of Precipitation, MM = Missing Value Source: NWS Daily Summary

Daily Weather History Graph

Daily Weather History Graph

Search for Another Location

Airport:

Trip Planner

Search our weather history database for the weather conditions in past years. The results will help you decide how hot, cold, wet, or windy it might be!

Date:

Astronomy

Feb. 14, 2013 Rise Set
Actual Time 7:30 AM CST 5:51 PM CST
Civil Twilight 6:59 AM CST 6:22 PM CST
Nautical Twilight 6:24 AM CST 6:57 PM CST
Astronomical Twilight 5:49 AM CST 7:32 PM CST
Moon 9:14 AM CST (2/14) 11:16 PM CST (2/14)
Length of Visible Light 11h 22m
Length of Day
10h 20m
Waxing Crescent, 22% of the Moon is Illuminated
Feb 14
Waxing Crescent
Feb 17
First Quarter
Feb 25
Full
Mar 4
Last Quarter
Mar 11
New

Hourly Weather History & Observations

Time (CST) Temp. Windchill Dew Point Humidity Pressure Visibility Wind Dir Wind Speed Gust Speed Precip Events Conditions
12:15 AM 21.2 °F 9.5 °F 17.6 °F 86% 29.76 in 10.0 mi NW 11.5 mph - N/A   Clear
12:35 AM 19.4 °F 7.2 °F 17.6 °F 93% 29.76 in 10.0 mi North 11.5 mph - N/A   Clear
12:55 AM 19.4 °F 7.9 °F 17.6 °F 93% 29.78 in 5.0 mi NNW 10.4 mph - N/A   Clear
1:15 AM 17.6 °F 5.7 °F 15.8 °F 93% 29.79 in 7.0 mi NNW 10.4 mph - N/A   Clear
1:35 AM 17.6 °F 7.3 °F 14.0 °F 86% 29.79 in 7.0 mi NNW 8.1 mph - N/A   Clear
1:55 AM 17.6 °F 7.3 °F 14.0 °F 86% 29.80 in 10.0 mi NNW 8.1 mph - N/A   Clear
2:15 AM 17.6 °F 8.2 °F 14.0 °F 86% 29.81 in 10.0 mi NNW 6.9 mph - N/A   Clear
2:35 AM 10.4 °F 0.8 °F 8.6 °F 92% 29.81 in 7.0 mi NW 5.8 mph - N/A   Clear
2:55 AM 14.0 °F 2.9 °F 12.2 °F 93% 29.81 in 7.0 mi NW 8.1 mph - N/A   Clear
3:15 AM 10.4 °F -1.5 °F 8.6 °F 92% 29.82 in 7.0 mi NW 8.1 mph - N/A   Scattered Clouds
3:35 AM 15.8 °F 6.1 °F 12.2 °F 86% 29.82 in 10.0 mi NW 6.9 mph - N/A   Mostly Cloudy
3:55 AM 17.6 °F 8.2 °F 14.0 °F 86% 29.82 in 10.0 mi North 6.9 mph - N/A   Overcast
4:15 AM 17.6 °F 9.3 °F 14.0 °F 86% 29.82 in 10.0 mi NNW 5.8 mph - N/A   Overcast
4:35 AM 17.6 °F 9.3 °F 15.8 °F 93% 29.83 in 10.0 mi North 5.8 mph - N/A   Overcast
4:55 AM 19.4 °F 6.6 °F 17.6 °F 93% 29.83 in 10.0 mi North 12.7 mph - N/A   Overcast
5:55 AM 17.6 °F 5.7 °F 14.0 °F 86% 29.86 in 10.0 mi North 10.4 mph - N/A   Overcast
6:15 AM 17.6 °F 5.0 °F 14.0 °F 86% 29.87 in 10.0 mi North 11.5 mph - N/A   Overcast
6:35 AM 17.6 °F 4.3 °F 14.0 °F 86% 29.88 in 10.0 mi North 12.7 mph - N/A   Overcast
6:55 AM 17.6 °F 5.0 °F 14.0 °F 86% 29.88 in 10.0 mi North 11.5 mph - N/A   Overcast
7:15 AM 17.6 °F 4.3 °F 12.2 °F 79% 29.89 in 10.0 mi North 12.7 mph - N/A   Overcast
7:35 AM 17.6 °F 3.7 °F 12.2 °F 79% 29.91 in 10.0 mi North 13.8 mph - N/A   Overcast
7:55 AM 15.8 °F 0.9 °F 12.2 °F 86% 29.92 in 10.0 mi North 15.0 mph - N/A   Overcast
8:15 AM 15.8 °F 2.1 °F 10.4 °F 79% 29.94 in 10.0 mi North 12.7 mph - N/A   Overcast
8:35 AM 14.0 °F -2.5 °F 10.4 °F 86% 29.95 in 10.0 mi North 17.3 mph - N/A   Overcast
8:55 AM 14.0 °F -2.5 °F 10.4 °F 86% 29.96 in 10.0 mi North 17.3 mph - N/A   Mostly Cloudy
9:15 AM 14.0 °F -2.0 °F 10.4 °F 86% 29.97 in 10.0 mi North 16.1 mph 23.0 mph N/A   Scattered Clouds
9:55 AM 14.0 °F -1.4 °F 8.6 °F 79% 30.00 in 10.0 mi North 15.0 mph 20.7 mph N/A   Clear
10:15 AM 14.0 °F -1.4 °F 8.6 °F 79% 30.01 in 10.0 mi North 15.0 mph 23.0 mph N/A   Clear
10:35 AM 12.2 °F -5.3 °F 8.6 °F 85% 30.02 in 10.0 mi North 18.4 mph - N/A   Clear
10:55 AM 12.2 °F -5.3 °F 8.6 °F 85% 30.03 in 10.0 mi North 18.4 mph 23.0 mph N/A   Clear
11:15 AM 12.2 °F -7.5 °F 8.6 °F 85% 30.05 in 7.0 mi North 24.2 mph - N/A   Clear
11:35 AM 12.2 °F -5.3 °F 8.6 °F 85% 30.06 in 7.0 mi North 18.4 mph - N/A   Clear
11:55 AM 12.2 °F -5.3 °F 6.8 °F 79% 30.08 in 7.0 mi North 18.4 mph 25.3 mph N/A   Scattered Clouds
12:15 PM 12.2 °F -5.3 °F 6.8 °F 79% 30.08 in 5.0 mi North 18.4 mph 25.3 mph N/A   Scattered Clouds
12:35 PM 14.0 °F -3.9 °F 8.6 °F 79% 30.09 in 10.0 mi North 20.7 mph 25.3 mph N/A   Clear
12:55 PM 14.0 °F -3.0 °F 8.6 °F 79% 30.10 in 10.0 mi NNW 18.4 mph - N/A   Clear
1:15 PM 14.0 °F -3.0 °F 8.6 °F 79% 30.11 in 7.0 mi NNW 18.4 mph 23.0 mph N/A   Scattered Clouds
1:55 PM 12.2 °F -5.8 °F 6.8 °F 79% 30.12 in 7.0 mi NNW 19.6 mph 26.5 mph N/A   Clear
2:15 PM 12.2 °F -4.3 °F 6.8 °F 79% 30.14 in 10.0 mi NNW 16.1 mph - N/A   Clear
2:35 PM 12.2 °F -4.8 °F 6.8 °F 79% 30.15 in 7.0 mi NNW 17.3 mph 21.9 mph N/A   Clear
2:55 PM 12.2 °F -4.3 °F 6.8 °F 79% 30.16 in 7.0 mi NNW 16.1 mph 20.7 mph N/A   Clear
3:15 PM 12.2 °F -4.8 °F 6.8 °F 79% 30.17 in 10.0 mi NNW 17.3 mph - N/A   Clear
3:35 PM 12.2 °F -3.1 °F 6.8 °F 79% 30.18 in 10.0 mi NNW 13.8 mph - N/A   Clear
3:55 PM 12.2 °F -4.8 °F 6.8 °F 79% 30.19 in 10.0 mi NNW 17.3 mph 21.9 mph N/A   Clear
4:15 PM 12.2 °F -3.7 °F 6.8 °F 79% 30.19 in 10.0 mi NNW 15.0 mph - N/A   Clear
4:35 PM 12.2 °F -4.8 °F 5.0 °F 73% 30.21 in 10.0 mi NNW 17.3 mph 24.2 mph N/A   Clear
4:55 PM 10.4 °F -6.0 °F 5.0 °F 79% 30.22 in 10.0 mi NNW 15.0 mph - N/A   Clear
5:15 PM 10.4 °F -5.4 °F 5.0 °F 79% 30.23 in 10.0 mi NNW 13.8 mph - N/A   Clear
5:35 PM 8.6 °F -5.5 °F 3.2 °F 79% 30.24 in 10.0 mi NNW 10.4 mph - N/A   Clear
5:55 PM 5.0 °F -10.0 °F 1.4 °F 85% 30.24 in 10.0 mi NW 10.4 mph - N/A   Clear
6:15 PM 5.0 °F -10.0 °F -0.4 °F 78% 30.24 in 10.0 mi NW 10.4 mph - N/A   Clear
6:35 PM 3.2 °F -10.3 °F -0.4 °F 85% 30.25 in 10.0 mi NW 8.1 mph - N/A   Clear
6:55 PM 1.4 °F -12.5 °F -2.2 °F 85% 30.26 in 10.0 mi WNW 8.1 mph - N/A   Clear
7:15 PM -0.4 °F -13.4 °F -5.8 °F 78% 30.26 in 10.0 mi WNW 6.9 mph - N/A   Clear
7:35 PM -0.4 °F -14.7 °F -5.8 °F 78% 30.26 in 10.0 mi WNW 8.1 mph - N/A   Clear
7:55 PM -2.2 °F -15.6 °F -5.8 °F 85% 30.26 in 10.0 mi WNW 6.9 mph - N/A   Clear
8:15 PM -4.0 °F -19.0 °F -7.6 °F 85% 30.26 in 10.0 mi West 8.1 mph - N/A   Clear
8:35 PM -4.0 °F -19.0 °F -7.6 °F 85% 30.26 in 10.0 mi WNW 8.1 mph - N/A   Clear
8:55 PM -5.8 °F -21.2 °F -9.4 °F 84% 30.26 in 10.0 mi WNW 8.1 mph - N/A   Clear
9:15 PM -4.0 °F -16.3 °F -7.6 °F 85% 30.25 in 10.0 mi WNW 5.8 mph - N/A   Clear
9:55 PM 1.4 °F -12.5 °F -4.0 °F 78% 30.26 in 10.0 mi WNW 8.1 mph - N/A   Overcast
10:15 PM -0.4 °F -12.0 °F -5.8 °F 78% 30.26 in 10.0 mi West 5.8 mph - N/A   Scattered Clouds
10:35 PM -2.2 °F -15.6 °F -5.8 °F 85% 30.26 in 10.0 mi West 6.9 mph - N/A   Scattered Clouds
10:55 PM -4.0 °F -16.3 °F -7.6 °F 85% 30.26 in 10.0 mi West 5.8 mph - N/A   Mostly Cloudy
11:15 PM -2.2 °F -15.6 °F -5.8 °F 85% 30.26 in 10.0 mi West 6.9 mph - N/A   Overcast
11:35 PM -2.2 °F -12.5 °F -7.6 °F 78% 30.27 in 10.0 mi West 4.6 mph - N/A   Overcast
11:55 PM -0.4 °F -10.4 °F -5.8 °F 78% 30.27 in 10.0 mi West 4.6 mph - N/A   Overcast